Location: Vulcan
(50.4000°N, 113.2500°W)
Time: 15:39:14
(UTC-07:00)

Explorer 7 - All Passes

Search period start: 11 November 2019 00:00
Search period end: 21 November 2019 00:00
Orbit: 485 x 680 km, 50.3° (Epoch: 11 November)

Date Brightness Start Highest point End Pass type
(mag) Time Alt. Az. Time Alt. Az. Time Alt. Az.
11 Nov - 02:51:11 10° S 02:54:00 17° SE 02:56:43 10° E visible
11 Nov - 04:29:48 10° SW 04:33:58 52° SSE 04:37:54 10° E visible
11 Nov - 06:10:15 10° W 06:14:24 90° SE 06:18:19 10° E visible
11 Nov - 07:50:55 10° W 07:54:52 64° SSW 07:58:38 10° ESE daylight
11 Nov - 09:31:56 10° W 09:34:50 20° SW 09:37:41 10° SSE daylight
12 Nov - 02:55:14 10° SSW 02:58:45 24° SE 03:02:08 10° E visible
12 Nov - 04:34:38 10° WSW 04:38:53 66° SSE 04:42:53 10° E visible
12 Nov - 06:15:15 10° W 06:19:24 90° SE 06:23:18 10° E visible
12 Nov - 07:55:55 10° W 07:59:46 50° SSW 08:03:28 10° SE daylight
12 Nov - 09:37:30 10° WSW 09:39:33 14° SW 09:41:34 10° S daylight
13 Nov - 02:59:36 10° SSW 03:03:34 33° SSE 03:07:19 10° E visible
13 Nov - 04:39:33 10° WSW 04:43:51 79° SSE 04:47:51 10° E visible
13 Nov - 06:20:14 10° W 06:24:22 84° SSW 06:28:16 10° E visible
13 Nov - 08:00:57 10° W 08:04:38 37° SSW 08:08:09 10° SE daylight
14 Nov - 01:26:20 10° SSE 01:28:33 14° SE 01:30:43 10° ESE night (unlit)
14 Nov - 03:04:13 10° SW 03:08:25 45° SSE 03:12:23 10° E visible
14 Nov - 04:44:32 10° W 04:48:48 87° S 04:52:50 10° E visible
14 Nov - 06:25:14 10° W 06:29:20 74° SSW 06:33:12 10° ESE visible
14 Nov - 08:06:05 10° W 08:09:26 26° SW 08:12:40 10° SSE daylight
15 Nov - 01:30:00 10° S 01:33:16 20° SE 01:36:25 10° E night (unlit)
15 Nov - 03:08:58 10° WSW 03:13:19 58° SSE 03:17:23 10° E visible
15 Nov - 04:49:31 10° W 04:53:47 89° NNW 04:57:49 10° E visible
15 Nov - 06:30:13 10° W 06:34:16 60° SSW 06:38:05 10° ESE visible
15 Nov - 08:11:23 10° W 08:14:11 19° SW 08:16:54 10° S daylight
16 Nov - 01:34:12 10° SSW 01:38:03 28° SE 01:41:43 10° E night (unlit)
16 Nov - 03:13:50 10° WSW 03:18:15 71° SSE 03:22:22 10° E visible
16 Nov - 04:54:31 10° W 04:58:47 89° S 05:02:47 10° E visible
16 Nov - 06:35:13 10° W 06:39:09 46° SSW 06:42:52 10° SE visible
16 Nov - 08:17:08 10° WSW 08:18:52 13° SW 08:20:34 10° SSW daylight
17 Nov - 00:02:06 10° SSE 00:03:07 11° SE 00:04:06 10° ESE night (unlit)
17 Nov - 01:38:39 10° SW 01:42:52 38° SSE 01:46:51 10° E night (unlit)
17 Nov - 03:18:46 10° WSW 03:23:12 82° S 03:27:21 10° E visible
17 Nov - 04:59:30 10° W 05:03:45 82° S 05:07:45 10° ESE visible
17 Nov - 06:40:16 10° W 06:43:59 34° SSW 06:47:32 10° SE visible
18 Nov - 00:04:57 10° S 00:07:47 16° SE 00:10:32 10° E night (unlit)
18 Nov - 01:43:19 10° SW 01:47:43 50° SSE 01:51:52 10° E night (unlit)
18 Nov - 03:23:45 10° W 03:28:10 89° S 03:32:19 10° E visible
18 Nov - 05:04:29 10° W 05:08:42 70° SSW 05:12:40 10° ESE visible
18 Nov - 06:45:26 10° W 06:48:46 24° SW 06:51:58 10° SSE visible
19 Nov - 00:08:51 10° SSW 00:12:30 23° SE 00:16:01 10° E night (unlit)
19 Nov - 01:48:07 10° WSW 01:52:38 63° SSE 01:56:52 10° E night (unlit)
19 Nov - 03:28:44 10° W 03:33:10 90° N 03:37:18 10° E visible
19 Nov - 05:09:28 10° W 05:13:37 56° SSW 05:17:32 10° ESE visible
19 Nov - 06:50:48 10° W 06:53:29 17° SW 06:56:05 10° S visible
20 Nov - 00:13:10 10° SSW 00:17:17 32° SSE 00:21:14 10° E night (unlit)
20 Nov - 01:53:00 10° WSW 01:57:34 76° SSE 02:01:50 10° E night (unlit)
20 Nov - 03:33:43 10° W 03:38:08 87° S 03:42:16 10° E visible
20 Nov - 05:14:29 10° W 05:18:29 43° SSW 05:22:16 10° SE visible
20 Nov - 06:56:48 10° WSW 06:58:08 11° SW 06:59:26 10° SSW visible
20 Nov - 22:40:12 10° SSE 22:42:18 13° SE 22:44:22 10° ESE night (unlit)
